Torna al catalogo

STARLINK-31734

AttivoComunicazioniVLEO
NORAD 59534·PAYLOAD·🇺🇸 United States

Lanciato Apr 18, 2024 da Cape Canaveral Space Force Station

Loading…

Prossimi Passaggi (prossime 24 ore)

TLE

AggiornatoSource: CelesTrak SupGP

Epoca: Sep 14, 2026, 22:38 UTC

1 59534C 24074A   26257.94354167 -.00019065  00000+0 -69067-3 0  2574
2 59534  43.0025 343.8259 0001505 276.5236 102.4315 15.27580902    14

Traccia STARLINK-31734 in tempo reale con AllMySat

Download on the App Store